Content
SEND FEEDBACK

Daily
Averages
Monthly
Summary
United States of America

SOUTH LAKE TAHOE, CALIFORNIA


Home > North America > United States > California
Elevation: 6263 feet     Latitude: 38 53N     Longitude: 119 59W

WEATHER
 
SELECT A DAY
Number of Records: 174,306;   Date Range: 1/1/95 - 7/20/14
 
SHARE

PRINT THIS DATA

[ ← Previous Day ]
WEATHER ALMANAC - MAY 21, 2013
[ Next Day → ]
[ °C ]   °F
Weather ElementAverageHighLow
Temperature55.9 °F64.9 °F (1:53 pm)43 °F (1:53 am)
Dewpoint22.9 °F32 °F (2:53 am)12 °F (8:53 am)
Humidity29.7 %62 % (1:53 am)15 % (8:53 am)
Barometer29.84 in29.97 in (1:53 am)29.79 in (11:53 pm)
Wind Speed13.4 mph28.8 mph (10:53 am)
Wind Gust42.6 mph (10:53 am)
Weather ElementAverage
Visibility10 mi
Wind DirectionSSE (151.3 °)

Weather ElementTotal
Precipitation---
Heating Degree Days11.1 (Base 65)
Growing Degree Days4 (Base 50)
Averaged from 23 records on May 21, 2013
WEATHER CONDITIONS BREAKOUT
WIND DIRECTION BREAKOUT
WEATHER BY HOUR - MAY 21, 2013
[ °C ]   °F
Local TimeTemperatureDewpointHumidityBarometerVisibilityWind DirectionWind SpeedGust SpeedPrecipitationEventsConditions
1:53 AM43.0 °F30.9 °F62 %29.97 in10.0 miCalmClear
2:53 AM51.1 °F32.0 °F48 %29.93 in10.0 miVariable3.5 mphClear
3:53 AM46.9 °F32.0 °F56 %29.92 in10.0 miCalmClear
4:53 AM50.0 °F23.0 °F35 %29.89 in10.0 miVariable4.6 mphClear
5:53 AM55.0 °F14.0 °F20 %29.87 in10.0 miSSE (150°)12.7 mph20.7 mphClear
6:53 AM55.0 °F16.0 °F22 %29.87 in10.0 miSSE (160°)9.2 mphClear
7:53 AM59.0 °F15.1 °F18 %29.86 in10.0 miSouth (190°)20.7 mph34.5 mphClear
8:53 AM61.0 °F12.0 °F15 %29.86 in10.0 miSouth (190°)17.3 mph32.2 mphClear
9:53 AM62.1 °F17.1 °F18 %29.84 in10.0 miSSW (200°)25.3 mph41.4 mphClear
10:53 AM64.0 °F21.9 °F20 %29.83 in10.0 miSSW (200°)28.8 mph42.6 mphClear
11:53 AM63.0 °F27.0 °F26 %29.84 in10.0 miSSW (210°)15.0 mph39.1 mphClear
12:53 PM63.0 °F28.0 °F27 %29.84 in10.0 miSouth (190°)24.2 mph39.1 mphClear
1:53 PM64.9 °F32.0 °F29 %29.84 in10.0 miSSW (200°)12.7 mph23.0 mphClear
2:53 PM63.0 °F30.0 °F29 %29.82 in10.0 miSSW (200°)10.4 mph35.7 mphClear
3:53 PM62.1 °F30.0 °F30 %29.82 in10.0 miSSW (200°)18.4 mph35.7 mphClear
4:53 PM61.0 °F28.0 °F29 %29.81 in10.0 miSSW (210°)12.7 mph41.4 mphClear
5:53 PM60.1 °F25.0 °F26 %29.80 in10.0 miSSW (200°)17.3 mph29.9 mphClear
6:53 PM55.9 °F25.0 °F30 %29.80 in10.0 miSouth (190°)17.3 mph34.5 mphClear
7:53 PM53.1 °F23.0 °F31 %29.80 in10.0 miSouth (180°)15.0 mph27.6 mphClear
8:53 PM50.0 °F18.0 °F28 %29.80 in10.0 miSouth (170°)12.7 mph18.4 mphClear
9:53 PM48.9 °F17.1 °F28 %29.80 in10.0 miSE (140°)9.2 mphClear
10:53 PM48.0 °F12.9 °F24 %29.80 in10.0 miSE (140°)11.5 mph18.4 mphClear
11:53 PM46.0 °F17.1 °F31 %29.79 in10.0 miSSE (160°)9.2 mphClear
Hourly data recorded from KTVL, located miles away from South Lake Tahoe, California







STORIES FROM OUR PARTNERS